• în Republica Moldova
  • Lista ţărilor
  • Pe 7 zile
  • Temperatura apei
  • Hartă satelitară
  • Meteo pe hartă
  • Widget-uri
  • user-avatar
    Intrare

    Meteo pe oră la Lezhe

    Astăzi, 27 Februarie, Luni

    Timp Temperatura Precipitaţii Vânt Presiune Umiditate
    00:00 +9°C° 0 mm 1 m/s 739 mmHg 90%
    01:00 +8°C° 0 mm 1 m/s 739 mmHg 90%
    02:00 +8°C° 0 mm 1 m/s 739 mmHg 89%
    03:00 +8°C° 0 mm 1 m/s 739 mmHg 89%
    04:00 +7°C° 0 mm 2 m/s 738 mmHg 88%
    05:00 +8°C° 0 mm 2 m/s 738 mmHg 88%
    06:00 +8°C° 0 mm 2 m/s 738 mmHg 88%
    07:00 +8°C° 0 mm 2 m/s 738 mmHg 88%
    08:00 +11°C° 0 mm 1 m/s 738 mmHg 82%
    09:00 +14°C° 0 mm 1 m/s 738 mmHg 76%
    10:00 +16°C° 0 mm 1 m/s 738 mmHg 70%
    11:00 +16°C° 0 mm 1 m/s 738 mmHg 68%
    12:00 +18°C° 0 mm 1 m/s 738 mmHg 66%
    13:00 +19°C° 0 mm 1 m/s 738 mmHg 65%
    14:00 +18°C° 0 mm 1 m/s 737 mmHg 68%
    15:00 +18°C° 0 mm 1 m/s 737 mmHg 72%
    16:00 +16°C° 0 mm 1 m/s 737 mmHg 76%
    17:00 +14°C° 0 mm 1 m/s 737 mmHg 81%
    18:00 +13°C° 0 mm 1 m/s 737 mmHg 86%
    19:00 +10°C° 0 mm 0 m/s 737 mmHg 90%
    20:00 +11°C° 0 mm 1 m/s 737 mmHg 90%
    21:00 +10°C° 0 mm 1 m/s 738 mmHg 90%
    22:00 +10°C° 0 mm 1 m/s 738 mmHg 90%
    23:00 +10°C° 0 mm 1 m/s 738 mmHg 90%

    Mâine, 28 Februarie, Marţi

    Timp Temperatura Precipitaţii Vânt Presiune Umiditate
    00:00 +9°C° 0 mm 1 m/s 738 mmHg 90%
    01:00 +9°C° 0 mm 1 m/s 737 mmHg 90%
    02:00 +9°C° 0 mm 1 m/s 737 mmHg 90%
    03:00 +8°C° 0 mm 2 m/s 737 mmHg 91%
    04:00 +7°C° 0 mm 2 m/s 737 mmHg 91%
    05:00 +8°C° 0 mm 2 m/s 737 mmHg 90%
    06:00 +8°C° 0 mm 2 m/s 737 mmHg 88%
    07:00 +8°C° 0 mm 2 m/s 737 mmHg 87%
    08:00 +10°C° 0 mm 2 m/s 737 mmHg 82%
    09:00 +13°C° 0 mm 2 m/s 737 mmHg 76%
    10:00 +14°C° 0 mm 3 m/s 737 mmHg 71%
    11:00 +14°C° 0 mm 3 m/s 736 mmHg 70%
    12:00 +16°C° 0 mm 3 m/s 736 mmHg 69%
    13:00 +15°C° 0 mm 4 m/s 736 mmHg 69%
    14:00 +15°C° 0 mm 4 m/s 735 mmHg 72%
    15:00 +14°C° 0 mm 3 m/s 735 mmHg 75%
    16:00 +14°C° 0 mm 3 m/s 735 mmHg 78%
    17:00 +13°C° 0 mm 3 m/s 735 mmHg 84%
    18:00 +11°C° 0 mm 3 m/s 735 mmHg 89%
    19:00 +10°C° 0 mm 3 m/s 735 mmHg 94%
    20:00 +10°C° 0,1 mm 3 m/s 735 mmHg 94%
    21:00 +10°C° 0,1 mm 3 m/s 735 mmHg 94%
    22:00 +10°C° 0,1 mm 4 m/s 735 mmHg 94%
    23:00 +10°C° 0,1 mm 4 m/s 735 mmHg 93%

    Poimâine, 1 Martie, Miercuri

    Timp Temperatura Precipitaţii Vânt Presiune Umiditate
    00:00 +10°C° 0,1 mm 4 m/s 735 mmHg 92%
    01:00 +10°C° 0,1 mm 4 m/s 735 mmHg 91%
    02:00 +9°C° 0,3 mm 5 m/s 735 mmHg 91%
    03:00 +9°C° 0,3 mm 5 m/s 734 mmHg 91%
    04:00 +9°C° 0,3 mm 5 m/s 734 mmHg 91%
    05:00 +9°C° 0,5 mm 5 m/s 734 mmHg 92%
    06:00 +9°C° 0,5 mm 5 m/s 733 mmHg 92%
    07:00 +9°C° 0,5 mm 6 m/s 733 mmHg 93%
    08:00 +9°C° 0,8 mm 6 m/s 733 mmHg 92%
    09:00 +10°C° 0,8 mm 6 m/s 733 mmHg 91%
    10:00 +10°C° 0,8 mm 6 m/s 733 mmHg 91%
    11:00 +10°C° 1,6 mm 6 m/s 732 mmHg 91%
    12:00 +10°C° 1,6 mm 6 m/s 732 mmHg 91%
    13:00 +10°C° 1,6 mm 6 m/s 731 mmHg 92%
    14:00 +10°C° 3,7 mm 5 m/s 731 mmHg 93%
    15:00 +10°C° 3,7 mm 4 m/s 731 mmHg 94%
    16:00 +9°C° 3,7 mm 3 m/s 731 mmHg 96%
    17:00 +9°C° 0,8 mm 2 m/s 732 mmHg 96%
    18:00 +9°C° 0,8 mm 2 m/s 733 mmHg 95%
    19:00 +8°C° 0,8 mm 2 m/s 733 mmHg 95%
    20:00 +8°C° 0 mm 2 m/s 734 mmHg 95%
    21:00 +7°C° 0 mm 2 m/s 735 mmHg 95%
    22:00 +7°C° 0 mm 2 m/s 735 mmHg 94%
    23:00 +6°C° 0 mm 2 m/s 736 mmHg 94%

    2 Martie, Joi

    Timp Temperatura Precipitaţii Vânt Presiune Umiditate
    00:00 +6°C° 0 mm 2 m/s 736 mmHg 94%
    01:00 +6°C° 0 mm 2 m/s 737 mmHg 93%
    02:00 +5°C° 0 mm 2 m/s 737 mmHg 93%
    03:00 +5°C° 0 mm 2 m/s 737 mmHg 93%
    04:00 +5°C° 0 mm 2 m/s 737 mmHg 93%
    05:00 +5°C° 0 mm 2 m/s 738 mmHg 91%
    06:00 +5°C° 0 mm 2 m/s 738 mmHg 90%
    07:00 +5°C° 0 mm 2 m/s 739 mmHg 89%
    08:00 +6°C° 0 mm 2 m/s 739 mmHg 80%
    09:00 +8°C° 0 mm 2 m/s 739 mmHg 72%
    10:00 +10°C° 0 mm 2 m/s 739 mmHg 63%
    11:00 +12°C° 0 mm 1 m/s 739 mmHg 60%
    12:00 +13°C° 0 mm 1 m/s 739 mmHg 56%
    13:00 +14°C° 0 mm 1 m/s 739 mmHg 52%
    14:00 +14°C° 0 mm 1 m/s 739 mmHg 57%
    15:00 +13°C° 0 mm 2 m/s 739 mmHg 61%
    16:00 +13°C° 0 mm 2 m/s 739 mmHg 66%
    17:00 +11°C° 0 mm 1 m/s 739 mmHg 71%
    18:00 +9°C° 0 mm 1 m/s 739 mmHg 76%
    19:00 +7°C° 0 mm 1 m/s 740 mmHg 82%
    20:00 +7°C° 0 mm 1 m/s 740 mmHg 79%
    21:00 +7°C° 0 mm 1 m/s 740 mmHg 76%
    22:00 +7°C° 0 mm 1 m/s 740 mmHg 73%
    23:00 +7°C° 0 mm 1 m/s 740 mmHg 71%

    3 Martie, Vineri

    Timp Temperatura Precipitaţii Vânt Presiune Umiditate
    00:00 +7°C° 0 mm 1 m/s 740 mmHg 70%
    01:00 +7°C° 0 mm 1 m/s 740 mmHg 68%
    02:00 +7°C° 0 mm 1 m/s 740 mmHg 66%
    03:00 +7°C° 0 mm 1 m/s 740 mmHg 64%
    04:00 +7°C° 0 mm 1 m/s 739 mmHg 62%
    05:00 +7°C° 0 mm 1 m/s 740 mmHg 61%
    06:00 +7°C° 0 mm 1 m/s 740 mmHg 60%
    07:00 +8°C° 0 mm 1 m/s 740 mmHg 58%
    08:00 +10°C° 0 mm 1 m/s 740 mmHg 55%
    09:00 +13°C° 0 mm 1 m/s 740 mmHg 51%
    10:00 +15°C° 0 mm 1 m/s 740 mmHg 48%
    11:00 +16°C° 0 mm 1 m/s 740 mmHg 48%
    12:00 +16°C° 0 mm 1 m/s 740 mmHg 48%
    13:00 +18°C° 0 mm 1 m/s 739 mmHg 48%
    14:00 +16°C° 0 mm 1 m/s 739 mmHg 54%
    15:00 +16°C° 0 mm 1 m/s 739 mmHg 59%
    16:00 +15°C° 0 mm 1 m/s 739 mmHg 65%
    17:00 +13°C° 0 mm 1 m/s 739 mmHg 71%
    18:00 +11°C° 0 mm 1 m/s 739 mmHg 77%
    19:00 +9°C° 0 mm 1 m/s 740 mmHg 83%
    20:00 +9°C° 0 mm 1 m/s 740 mmHg 83%
    21:00 +8°C° 0 mm 1 m/s 740 mmHg 82%
    22:00 +7°C° 0 mm 2 m/s 740 mmHg 82%
    23:00 +8°C° 0 mm 1 m/s 740 mmHg 82%

    4 Martie, Sâmbătă

    Timp Temperatura Precipitaţii Vânt Presiune Umiditate
    00:00 +8°C° 0 mm 1 m/s 740 mmHg 81%
    01:00 +7°C° 0 mm 1 m/s 740 mmHg 81%
    02:00 +7°C° 0 mm 1 m/s 740 mmHg 83%
    03:00 +7°C° 0 mm 1 m/s 740 mmHg 85%
    04:00 +7°C° 0 mm 1 m/s 740 mmHg 87%
    05:00 +7°C° 0 mm 1 m/s 740 mmHg 86%
    06:00 +7°C° 0 mm 1 m/s 740 mmHg 85%
    07:00 +8°C° 0 mm 1 m/s 740 mmHg 83%
    08:00 +10°C° 0 mm 1 m/s 740 mmHg 75%
    09:00 +12°C° 0 mm 1 m/s 740 mmHg 67%
    10:00 +15°C° 0 mm 1 m/s 740 mmHg 58%
    11:00 +15°C° 0 mm 1 m/s 740 mmHg 56%
    12:00 +16°C° 0 mm 1 m/s 739 mmHg 54%
    13:00 +17°C° 0 mm 2 m/s 739 mmHg 51%
    14:00 +16°C° 0 mm 2 m/s 739 mmHg 55%
    15:00 +16°C° 0 mm 1 m/s 739 mmHg 59%
    16:00 +15°C° 0 mm 1 m/s 739 mmHg 63%
    17:00 +13°C° 0 mm 1 m/s 739 mmHg 69%
    18:00 +11°C° 0 mm 1 m/s 739 mmHg 75%
    19:00 +9°C° 0 mm 1 m/s 739 mmHg 82%
    20:00 +9°C° 0 mm 1 m/s 739 mmHg 81%
    21:00 +9°C° 0 mm 1 m/s 740 mmHg 81%
    22:00 +8°C° 0 mm 1 m/s 740 mmHg 81%
    23:00 +8°C° 0 mm 1 m/s 740 mmHg 81%
    Arată mai mult